Flag for Russia

Past Weather in Khanty-Mansiysk, Russia — Yesterday and Last 2 Weeks

Now
32 °F

Passing clouds.


Feels Like: 29 °F
Forecast: 38 / 33 °F
Wind: 3 mph from West

Location: Hanty-Mansijsk
Current Time: Oct 20, 2020 at 3:14:20 am
Latest Report: Oct 20, 2020 at 2:30 am
Visibility: N/A
Pressure29.74 "Hg
Humidity: 100%
Dew Point: 32 °F
Location of Khanty-MansiyskLocation

Past Weather in Khanty-Mansiysk — Graph

°F

Khanty-Mansiysk Temperature Yesterday

Maximum temperature yesterday: 34 °F (at 4:00 pm)
Minimum temperature yesterday: 30 °F (at 12:00 am)
Average temperature yesterday: 31 °F

High & Low Weather Summary for the Past Weeks

 TemperatureHumidityPressure
High52 °F (Oct 13, 3:00 pm)100% (Oct 6, 10:00 am)30.48 "Hg (Oct 6, 10:00 am)
Low28 °F (Oct 6, 10:00 pm)53% (Oct 8, 4:00 pm)29.33 "Hg (Oct 16, 8:30 pm)
Average37 °F84%30.00 "Hg
* Reported Oct 5 2:00 am — Oct 20 2:00 am, Khanty-Mansiysk. Weather by CustomWeather, © 2020

Note: Actual official high and low records may vary slightly from our data, if they occured in-between our weather recording intervals... More about our weather records

Khanty-Mansiysk Weather History for the Previous 24 Hours

Scroll right to see more
 ConditionsComfort  
Time TempWeatherWind HumidityBarometerVisibility
2:00 am
Tue, Oct 20
32 °FPassing clouds.6 mph100%29.71 "HgN/A
1:30 am32 °FPassing clouds.6 mph100%29.71 "HgN/A
1:00 am32 °FPassing clouds.6 mph100%29.71 "HgN/A
12:30 am32 °FPassing clouds.3 mph100%29.71 "HgN/A
12:00 am32 °FPassing clouds.6 mph100%29.71 "HgN/A
11:30 pm
Mon, Oct 19
32 °FPassing clouds.6 mph100%29.68 "HgN/A
11:00 pm32 °FPassing clouds.3 mph100%29.68 "HgN/A
10:30 pm32 °FPassing clouds.6 mph100%29.68 "HgN/A
10:00 pm32 °FPassing clouds.6 mph100%29.65 "HgN/A
9:30 pm32 °FPassing clouds.6 mph100%29.65 "HgN/A
9:00 pm32 °FPassing clouds.6 mph100%29.65 "HgN/A
8:30 pm32 °FSnow flurries. Passing clouds.8 mph100%29.65 "HgN/A
8:00 pm32 °FSnow flurries. Passing clouds.6 mph100%29.65 "HgN/A
7:30 pm34 °FSnow flurries. Passing clouds.6 mph100%29.65 "HgN/A
7:00 pm34 °FPassing clouds.8 mph100%29.65 "HgN/A
6:30 pm34 °FSnow flurries. Passing clouds.8 mph100%29.65 "HgN/A
6:00 pm32 °FSnow flurries. Passing clouds.6 mph100%29.62 "HgN/A
5:30 pm34 °FLight rain. Passing clouds.6 mph100%29.62 "HgN/A
4:30 pm32 °FLight rain. Partly sunny.6 mph100%29.62 "Hg6 mi
4:00 pm34 °FLight rain. Partly sunny.6 mph100%29.62 "HgN/A
1:00 pm32 °FLight snow. Partly sunny.8 mph100%29.68 "Hg2 mi
12:30 pm32 °FLight snow. Partly sunny.8 mph100%29.71 "Hg4 mi
12:00 pm32 °FLight snow. Partly sunny.8 mph100%29.71 "Hg2 mi
11:30 am32 °FLight snow. Partly sunny.8 mph100%29.74 "Hg3 mi
11:00 am32 °FLight snow. Partly sunny.8 mph100%29.74 "Hg2 mi
10:30 am32 °FSnow. Partly sunny.8 mph100%29.77 "Hg1 mi
10:00 am32 °FLight snow. Partly sunny.8 mph100%29.80 "Hg2 mi
9:30 am32 °FSnow flurries. Partly sunny.8 mph100%29.80 "Hg6 mi
9:00 am30 °FSnow flurries. Partly sunny.8 mph100%29.83 "Hg3 mi
8:30 am30 °FChilly.8 mph100%29.86 "Hg1 mi
8:00 am30 °FSnow showers. Partly sunny.8 mph100%29.89 "Hg1 mi
7:30 am30 °FChilly.6 mph100%29.89 "Hg1 mi
7:00 am30 °FSnow flurries. Passing clouds.8 mph100%29.92 "Hg2 mi
6:30 am30 °FSnow flurries. Passing clouds.8 mph93%29.95 "Hg3 mi
6:00 am30 °FClear.8 mph93%29.95 "Hg10 mi
5:30 am30 °FPassing clouds.8 mph93%29.98 "HgN/A
5:00 am30 °FPassing clouds.8 mph93%29.98 "HgN/A
4:30 am30 °FClear.8 mph93%30.01 "Hg10 mi
4:00 am30 °FClear.8 mph86%30.01 "Hg10 mi
3:30 am30 °FClear.10 mph86%30.04 "Hg10 mi
3:00 am30 °FClear.8 mph86%30.04 "Hg10 mi
Weather by CustomWeather, © 2020

See weather overview